Погода в Александро-Невском

Россия / Республика Дагестан     43°55′15″N   46°33′23″E
темп.,
°C
ветер,
м/с
пор.,
м/с
влажн.,
%
обл.,
%
осадки,
мм/ч
давл.,
гПа
погр.,
м
25 июня, сб
сб2500:00+19вюв387489 0.0 1008191
03:00+17вюв228024 0.0 100911
06:00+21вюв366499 0.0 1010269
09:00+27в5639100 0.0 10091633
12:00+30вюв663155 0.0 10081983
15:00+31в7634100 0.0 10072105
18:00+28всв6639100 0.0 10081335
21:00+23в3558100 0.1 100996
26 июня, вс
вс2600:00+21юз3367100 0.0 100943
03:00+20с2273100 0.0 100730
06:00+22з2366100 0.0 1008191
09:00+28ссз1239100 0.0 10081208
12:00+33св5526100 0.0 10062031
15:00+33всв552692 0.0 10061947
18:00+29ссв443897 0.4 1006765
21:00+23з356894 0.9 100873
27 июня, пн
пн2700:00+22з5976100 0.3 1008251
03:00+21з4774100 0.4 1008179
06:00+24зсз346814 0.0 1009252
09:00+28всв665297 0.0 10091562
12:00+32всв98382 0.0 10101828
15:00+30св89405 0.0 10101484
18:00+27св784726 0.0 1010849
21:00+21с3367100 0.0 101136
28 июня, вт
вт2800:00+21ссз226597 0.0 101119
03:00+20ссз336692 0.0 101033
06:00+24с3760100 0.0 1010520
09:00+29ссв553318 0.1 10091405
12:00+32ссв76260 0.0 10091782
15:00+31св76300 0.0 10091672
18:00+29св55310 0.0 10101127
21:00+22св2257100 0.4 101112
29 июня, ср
ср2900:00+21ссз115766 0.0 101111
03:00+21с225535 0.0 101112
06:00+24с36575 0.0 1012253
09:00+30ссв554417 0.0 10121757
12:00+31св853697 0.0 10112489
15:00+30всв864012 0.0 10111706
18:00+25всв7857100 0.0 10131003
21:00+21в5869100 0.0 1014442